EZY122 EGKK-LPPT

Flight info

Callsign EZY122
Flight time 2h 16m
Altitude 37000
Route NOVMA L620 SAM M195 LORKU DCT BALDA DCT ABUPI DCT XAMAX
Aircraft A20N/M-SDE2E3FGHIRWXY/LB1

Departure

Time 2026-05-06 12:27
Airport London Gatwick Airport (EGKK)

Arrival

Time 2026-05-06 14:43
Airport Lisbon Humberto Delgado Airport (LPPT)
Time Latitude Longitude Altitude Speed Heading
2026-05-06 11:33 51.15638 -0.17847 204 ft 0 kts 169°
2026-05-06 11:54 51.15647 -0.17850 204 ft 4 kts 167°
2026-05-06 11:54 51.15674 -0.17859 210 ft 4 kts 169°
2026-05-06 11:54 51.15697 -0.17865 209 ft 2 kts 187°
2026-05-06 11:55 51.15708 -0.17859 212 ft 2 kts 243°
2026-05-06 11:55 51.15711 -0.17842 208 ft 2 kts 257°
2026-05-06 11:55 51.15712 -0.17836 214 ft 0 kts 258°
2026-05-06 11:59 51.15711 -0.17845 208 ft 2 kts 258°
2026-05-06 11:59 51.15700 -0.17922 204 ft 14 kts 256°
2026-05-06 11:59 51.15673 -0.18107 210 ft 19 kts 257°
2026-05-06 11:59 51.15653 -0.18249 211 ft 13 kts 257°
2026-05-06 12:00 51.15636 -0.18377 204 ft 8 kts 258°
2026-05-06 12:00 51.15638 -0.17847 204 ft 0 kts 169°
2026-05-06 12:14 51.15648 -0.17851 217 ft 4 kts 169°
2026-05-06 12:15 51.15675 -0.17859 210 ft 4 kts 169°
2026-05-06 12:15 51.15697 -0.17862 213 ft 2 kts 198°
2026-05-06 12:15 51.15707 -0.17854 213 ft 1 kts 230°
2026-05-06 12:15 51.15710 -0.17845 212 ft 0 kts 259°
2026-05-06 12:19 51.15709 -0.17855 213 ft 4 kts 259°
2026-05-06 12:19 51.15699 -0.17944 207 ft 11 kts 260°
2026-05-06 12:19 51.15681 -0.18074 206 ft 13 kts 250°
2026-05-06 12:19 51.15658 -0.18225 208 ft 15 kts 259°
2026-05-06 12:20 51.15609 -0.18349 206 ft 14 kts 187°
2026-05-06 12:20 51.15505 -0.18310 206 ft 16 kts 169°
2026-05-06 12:20 51.15385 -0.18275 209 ft 19 kts 167°
2026-05-06 12:20 51.15277 -0.18231 211 ft 10 kts 165°
2026-05-06 12:21 51.15201 -0.18219 204 ft 12 kts 206°
2026-05-06 12:21 51.15176 -0.18346 206 ft 13 kts 260°
2026-05-06 12:21 51.15155 -0.18502 206 ft 16 kts 257°
2026-05-06 12:21 51.15129 -0.18712 215 ft 23 kts 259°
2026-05-06 12:22 51.15090 -0.18988 212 ft 28 kts 256°
2026-05-06 12:22 51.15051 -0.19297 207 ft 29 kts 258°
2026-05-06 12:22 51.15004 -0.19605 207 ft 29 kts 256°
2026-05-06 12:22 51.14961 -0.19927 204 ft 29 kts 258°
2026-05-06 12:23 51.14917 -0.20243 203 ft 30 kts 256°
2026-05-06 12:23 51.14874 -0.20565 211 ft 30 kts 261°
2026-05-06 12:23 51.14830 -0.20888 206 ft 29 kts 256°
2026-05-06 12:23 51.14807 -0.21057 210 ft 0 kts 258°
2026-05-06 12:24 51.14804 -0.21078 204 ft 5 kts 258°
2026-05-06 12:24 51.14785 -0.21176 211 ft 14 kts 248°
2026-05-06 12:24 51.14753 -0.21354 208 ft 14 kts 252°
2026-05-06 12:24 51.14704 -0.21388 213 ft 5 kts 134°
2026-05-06 12:25 51.14666 -0.21357 214 ft 7 kts 142°
2026-05-06 12:25 51.14616 -0.21320 209 ft 9 kts 165°
2026-05-06 12:25 51.14550 -0.21278 210 ft 12 kts 145°
2026-05-06 12:25 51.14516 -0.21151 203 ft 13 kts 85°
2026-05-06 12:26 51.14539 -0.20996 207 ft 28 kts 78°
2026-05-06 12:26 51.14636 -0.20291 206 ft 100 kts 77°
2026-05-06 12:26 51.14755 -0.19433 210 ft 138 kts 78°
2026-05-06 12:26 51.14977 -0.17736 428 ft 166 kts 76°
2026-05-06 12:27 51.15209 -0.15932 1231 ft 170 kts 76°
2026-05-06 12:27 51.15449 -0.14006 1901 ft 182 kts 75°
2026-05-06 12:27 51.15713 -0.12017 2629 ft 187 kts 73°
2026-05-06 12:27 51.16022 -0.09910 3112 ft 205 kts 74°
2026-05-06 12:28 51.16419 -0.07618 3554 ft 222 kts 60°
2026-05-06 12:28 51.17431 -0.05809 4303 ft 220 kts 28°
2026-05-06 12:28 51.18864 -0.05114 5198 ft 217 kts
2026-05-06 12:28 51.20392 -0.05493 5811 ft 232 kts 343°
2026-05-06 12:29 51.21821 -0.06892 6219 ft 255 kts 314°
2026-05-06 12:29 51.22675 -0.09403 6941 ft 265 kts 285°
2026-05-06 12:29 51.22754 -0.12375 7723 ft 274 kts 265°
2026-05-06 12:29 51.22405 -0.15385 8541 ft 279 kts 259°
2026-05-06 12:30 51.21951 -0.18406 9389 ft 281 kts 259°
2026-05-06 12:30 51.21507 -0.21469 10173 ft 285 kts 260°
2026-05-06 12:30 51.21095 -0.24570 10971 ft 287 kts 261°
2026-05-06 12:30 51.20710 -0.27701 11752 ft 289 kts 261°
2026-05-06 12:31 51.20339 -0.30841 12513 ft 292 kts 261°
2026-05-06 12:31 51.19968 -0.34034 13270 ft 294 kts 261°
2026-05-06 12:31 51.19582 -0.37245 14001 ft 297 kts 260°
2026-05-06 12:31 51.19159 -0.40502 14622 ft 301 kts 259°
2026-05-06 12:32 51.18723 -0.43790 14897 ft 305 kts 259°
2026-05-06 12:32 51.18282 -0.47102 15003 ft 305 kts 259°
2026-05-06 12:32 51.17847 -0.50394 15022 ft 303 kts 259°
2026-05-06 12:32 51.17372 -0.53670 15020 ft 310 kts 252°
2026-05-06 12:33 51.16539 -0.56987 15032 ft 336 kts 249°
2026-05-06 12:33 51.15592 -0.60515 15196 ft 353 kts 248°
2026-05-06 12:33 51.14615 -0.64110 15878 ft 354 kts 248°
2026-05-06 12:33 51.13636 -0.67728 16539 ft 357 kts 248°
2026-05-06 12:34 51.12653 -0.71380 17195 ft 360 kts 248°
2026-05-06 12:34 51.11665 -0.75058 17818 ft 363 kts 248°
2026-05-06 12:34 51.10667 -0.78774 18415 ft 367 kts 248°
2026-05-06 12:34 51.09661 -0.82516 18977 ft 369 kts 248°
2026-05-06 12:35 51.08648 -0.86283 19511 ft 372 kts 248°
2026-05-06 12:35 51.07640 -0.90022 20041 ft 375 kts 248°
2026-05-06 12:35 51.06609 -0.93844 20573 ft 378 kts 248°
2026-05-06 12:35 51.05568 -0.97694 21105 ft 380 kts 248°
2026-05-06 12:36 51.04518 -1.01568 21631 ft 383 kts 247°
2026-05-06 12:36 51.03461 -1.05467 22157 ft 386 kts 247°
2026-05-06 12:36 51.02392 -1.09401 22652 ft 389 kts 247°
2026-05-06 12:36 51.01313 -1.13363 23152 ft 392 kts 247°
2026-05-06 12:37 51.00228 -1.17344 23640 ft 395 kts 247°
2026-05-06 12:37 50.99131 -1.21361 24061 ft 398 kts 247°
2026-05-06 12:37 50.98025 -1.25399 24475 ft 400 kts 247°
2026-05-06 12:37 50.96895 -1.29455 24879 ft 403 kts 244°
2026-05-06 12:38 50.95409 -1.33241 25257 ft 407 kts 232°
2026-05-06 12:38 50.93450 -1.36505 25635 ft 411 kts 221°
2026-05-06 12:38 50.91114 -1.39145 26012 ft 415 kts 214°
2026-05-06 12:38 50.88688 -1.41645 26389 ft 417 kts 214°
2026-05-06 12:39 50.86247 -1.44175 26749 ft 420 kts 214°
2026-05-06 12:39 50.85427 -1.45026 26869 ft 421 kts 214°
2026-05-06 12:39 50.85325 -1.45132 26885 ft 421 kts 214°
2026-05-06 12:39 50.82975 -1.47570 27221 ft 423 kts 214°
2026-05-06 12:40 50.80512 -1.50125 27570 ft 425 kts 214°
2026-05-06 12:40 50.78023 -1.52705 27909 ft 428 kts 214°
2026-05-06 12:40 50.75529 -1.55285 28220 ft 430 kts 214°
2026-05-06 12:40 50.73015 -1.57883 28525 ft 433 kts 214°
2026-05-06 12:41 50.70489 -1.60490 28836 ft 435 kts 214°
2026-05-06 12:41 50.67950 -1.63106 29147 ft 437 kts 214°
2026-05-06 12:41 50.65395 -1.65735 29438 ft 439 kts 214°
2026-05-06 12:41 50.62828 -1.68373 29701 ft 442 kts 214°
2026-05-06 12:42 50.60249 -1.71020 29984 ft 444 kts 214°
2026-05-06 12:42 50.57647 -1.73686 30059 ft 451 kts 214°
2026-05-06 12:42 50.54958 -1.76440 29242 ft 474 kts 214°
2026-05-06 12:42 50.52146 -1.79317 28740 ft 482 kts 214°
2026-05-06 12:43 50.49391 -1.82132 28487 ft 477 kts 214°
2026-05-06 12:43 50.46608 -1.84974 27686 ft 477 kts 214°
2026-05-06 12:43 50.43829 -1.87805 26456 ft 477 kts 214°
2026-05-06 12:43 50.41022 -1.90660 25130 ft 481 kts 214°
2026-05-06 12:44 50.38205 -1.93482 24131 ft 476 kts 212°
2026-05-06 12:44 50.35484 -1.96138 24393 ft 448 kts 214°
2026-05-06 12:44 50.32913 -1.98768 24358 ft 432 kts 214°
2026-05-06 12:44 50.30421 -2.01259 25176 ft 421 kts 214°
2026-05-06 12:45 50.27993 -2.03742 25925 ft 415 kts 214°
2026-05-06 12:45 50.25579 -2.06221 26302 ft 418 kts 214°
2026-05-06 12:45 50.20644 -2.11158 27016 ft 423 kts 213°
2026-05-06 12:46 50.18138 -2.13592 27367 ft 426 kts 213°
2026-05-06 12:46 50.15615 -2.16036 27713 ft 428 kts 213°
2026-05-06 12:46 50.13081 -2.18490 28028 ft 431 kts 213°
2026-05-06 12:46 50.10532 -2.20960 28357 ft 433 kts 213°
2026-05-06 12:47 50.07968 -2.23446 28670 ft 435 kts 213°
2026-05-06 12:47 50.05388 -2.25944 28954 ft 438 kts 213°
2026-05-06 12:47 50.02795 -2.28453 29236 ft 440 kts 213°
2026-05-06 12:47 50.00187 -2.30973 29522 ft 442 kts 213°
2026-05-06 12:48 49.97566 -2.33502 29799 ft 445 kts 213°
2026-05-06 12:48 49.94930 -2.36030 30099 ft 447 kts 211°
2026-05-06 12:48 49.92156 -2.38250 30369 ft 450 kts 205°
2026-05-06 12:48 49.89267 -2.40159 30622 ft 452 kts 204°
2026-05-06 12:49 49.86365 -2.42069 30875 ft 454 kts 204°
2026-05-06 12:49 49.83454 -2.43991 31136 ft 455 kts 204°
2026-05-06 12:49 49.80544 -2.45919 31458 ft 455 kts 204°
2026-05-06 12:49 49.77634 -2.47848 31772 ft 455 kts 204°
2026-05-06 12:50 49.74728 -2.49773 32118 ft 454 kts 205°
2026-05-06 12:50 49.71828 -2.51693 32451 ft 453 kts 204°
2026-05-06 12:50 49.68929 -2.53610 32780 ft 453 kts 204°
2026-05-06 12:50 49.66040 -2.55518 33108 ft 452 kts 204°
2026-05-06 12:51 49.63190 -2.57397 33369 ft 452 kts 204°
2026-05-06 12:51 49.60261 -2.59323 33653 ft 451 kts 204°
2026-05-06 12:51 49.57373 -2.61221 33959 ft 450 kts 204°
2026-05-06 12:51 49.54490 -2.63113 34186 ft 450 kts 204°
2026-05-06 12:52 49.51614 -2.64997 34406 ft 450 kts 204°
2026-05-06 12:52 49.48772 -2.66856 34618 ft 449 kts 204°
2026-05-06 12:52 49.45896 -2.68736 34807 ft 449 kts 204°
2026-05-06 12:52 49.43019 -2.70613 35021 ft 449 kts 204°
2026-05-06 12:53 49.40141 -2.72488 35214 ft 449 kts 204°
2026-05-06 12:53 49.37264 -2.74360 35395 ft 449 kts 204°
2026-05-06 12:53 49.34389 -2.76230 35578 ft 449 kts 204°
2026-05-06 12:53 49.31517 -2.78094 35756 ft 449 kts 204°
2026-05-06 12:54 49.28639 -2.79960 35941 ft 448 kts 204°
2026-05-06 12:54 49.25768 -2.81819 36122 ft 448 kts 204°
2026-05-06 12:54 49.22899 -2.83675 36291 ft 448 kts 204°
2026-05-06 12:54 49.20025 -2.85531 36432 ft 448 kts 204°
2026-05-06 12:55 49.17157 -2.87381 36590 ft 448 kts 204°
2026-05-06 12:55 49.14287 -2.89231 36740 ft 447 kts 204°
2026-05-06 12:55 49.11420 -2.91075 36882 ft 447 kts 204°
2026-05-06 12:56 49.05684 -2.94760 36985 ft 447 kts 204°
2026-05-06 12:56 48.99963 -2.98425 36983 ft 446 kts 204°
2026-05-06 12:57 48.94232 -3.02088 36982 ft 447 kts 204°
2026-05-06 12:57 48.88499 -3.05743 36984 ft 447 kts 204°
2026-05-06 12:58 48.82758 -3.09393 36986 ft 447 kts 204°
2026-05-06 12:58 48.77015 -3.13036 36991 ft 447 kts 204°
2026-05-06 12:59 48.71274 -3.16669 36989 ft 447 kts 204°
2026-05-06 12:59 48.65834 -3.20103 36988 ft 447 kts 204°
2026-05-06 13:00 48.60115 -3.23703 36987 ft 447 kts 204°
2026-05-06 13:00 48.54367 -3.27314 36980 ft 448 kts 204°
2026-05-06 13:01 48.48618 -3.30917 36979 ft 448 kts 204°
2026-05-06 13:01 48.42866 -3.34512 36969 ft 447 kts 204°
2026-05-06 13:02 48.37112 -3.38100 36975 ft 448 kts 204°
2026-05-06 13:02 48.31355 -3.41681 36977 ft 448 kts 204°
2026-05-06 13:03 48.25596 -3.45254 36970 ft 448 kts 204°
2026-05-06 13:03 48.19835 -3.48819 36969 ft 448 kts 204°
2026-05-06 13:04 48.14076 -3.52376 36968 ft 448 kts 204°
2026-05-06 13:04 48.08314 -3.55925 36968 ft 448 kts 203°
2026-05-06 13:05 48.02554 -3.59465 36964 ft 448 kts 203°
2026-05-06 13:05 47.96830 -3.62973 36960 ft 448 kts 203°
2026-05-06 13:06 47.91060 -3.66502 36961 ft 448 kts 203°
2026-05-06 13:06 47.85293 -3.70020 36959 ft 448 kts 203°
2026-05-06 13:07 47.79523 -3.73531 36959 ft 448 kts 203°
2026-05-06 13:07 47.73750 -3.77036 36962 ft 448 kts 203°
2026-05-06 13:08 47.67974 -3.80534 36965 ft 448 kts 203°
2026-05-06 13:08 47.62198 -3.84023 36963 ft 448 kts 203°
2026-05-06 13:09 47.56416 -3.87508 36971 ft 449 kts 203°
2026-05-06 13:09 47.50639 -3.90982 36971 ft 448 kts 203°
2026-05-06 13:10 47.44855 -3.94452 36974 ft 448 kts 204°
2026-05-06 13:10 47.39070 -3.97913 36979 ft 449 kts 204°
2026-05-06 13:11 47.33284 -4.01368 36981 ft 449 kts 204°
2026-05-06 13:11 47.27498 -4.04814 36982 ft 449 kts 204°
2026-05-06 13:12 47.21705 -4.08257 36989 ft 449 kts 204°
2026-05-06 13:12 47.15947 -4.11670 36990 ft 449 kts 204°
2026-05-06 13:13 47.10144 -4.15102 36989 ft 450 kts 204°
2026-05-06 13:13 47.04345 -4.18523 36997 ft 449 kts 203°
2026-05-06 13:14 46.98548 -4.21935 36999 ft 449 kts 203°
2026-05-06 13:14 46.92746 -4.25343 36999 ft 449 kts 203°
2026-05-06 13:15 46.87886 -4.28191 36999 ft 449 kts 203°
2026-05-06 13:15 46.82088 -4.31581 37004 ft 449 kts 203°
2026-05-06 13:16 46.76325 -4.34942 37008 ft 449 kts 203°
2026-05-06 13:16 46.70523 -4.38319 37012 ft 449 kts 203°
2026-05-06 13:17 46.64717 -4.41691 37009 ft 449 kts 203°
2026-05-06 13:17 46.58909 -4.45056 37008 ft 449 kts 203°
2026-05-06 13:18 46.53098 -4.48414 37008 ft 449 kts 203°
2026-05-06 13:18 46.47287 -4.51765 37013 ft 449 kts 203°
2026-05-06 13:19 46.41477 -4.55108 37011 ft 449 kts 203°
2026-05-06 13:19 46.35667 -4.58444 37013 ft 449 kts 203°
2026-05-06 13:20 46.29860 -4.61769 37017 ft 449 kts 203°
2026-05-06 13:20 46.24047 -4.65090 37021 ft 449 kts 203°
2026-05-06 13:21 46.18237 -4.68403 37022 ft 449 kts 203°
2026-05-06 13:21 46.12426 -4.71708 37025 ft 449 kts 203°
2026-05-06 13:22 46.06618 -4.75004 37025 ft 449 kts 203°
2026-05-06 13:22 46.00805 -4.78295 37024 ft 449 kts 203°
2026-05-06 13:23 45.94989 -4.81581 37028 ft 449 kts 203°
2026-05-06 13:23 45.89173 -4.84859 37026 ft 449 kts 203°
2026-05-06 13:24 45.83358 -4.88130 37027 ft 449 kts 203°
2026-05-06 13:24 45.77545 -4.91391 37030 ft 449 kts 203°
2026-05-06 13:25 45.71730 -4.94647 37028 ft 449 kts 203°
2026-05-06 13:25 45.65921 -4.97892 37032 ft 448 kts 203°
2026-05-06 13:26 45.60104 -5.01134 37026 ft 448 kts 203°
2026-05-06 13:26 45.54299 -5.04362 37029 ft 448 kts 203°
2026-05-06 13:27 45.48519 -5.07570 37038 ft 448 kts 203°
2026-05-06 13:27 45.42669 -5.10809 37040 ft 448 kts 203°
2026-05-06 13:28 45.36855 -5.14020 37031 ft 448 kts 203°
2026-05-06 13:28 45.31042 -5.17225 37034 ft 448 kts 203°
2026-05-06 13:29 45.25222 -5.20426 37030 ft 448 kts 203°
2026-05-06 13:29 45.19413 -5.23614 37035 ft 448 kts 203°
2026-05-06 13:30 45.13612 -5.26790 37035 ft 447 kts 203°
2026-05-06 13:30 45.07841 -5.29943 37037 ft 447 kts 203°
2026-05-06 13:31 45.02005 -5.33125 37039 ft 447 kts 203°
2026-05-06 13:31 44.96247 -5.36258 37038 ft 447 kts 203°
2026-05-06 13:32 44.90449 -5.39405 37033 ft 446 kts 203°
2026-05-06 13:32 44.84650 -5.42546 37038 ft 447 kts 203°
2026-05-06 13:33 44.78856 -5.45680 37039 ft 446 kts 203°
2026-05-06 13:33 44.73064 -5.48808 37037 ft 446 kts 203°
2026-05-06 13:34 44.67272 -5.51928 37036 ft 446 kts 203°
2026-05-06 13:34 44.61476 -5.55044 37039 ft 446 kts 203°
2026-05-06 13:35 44.55763 -5.58398 37038 ft 444 kts 206°
2026-05-06 13:35 44.50133 -5.61965 37036 ft 444 kts 206°
2026-05-06 13:36 44.44485 -5.65487 37038 ft 444 kts 206°
2026-05-06 13:36 44.38830 -5.68974 37038 ft 444 kts 206°
2026-05-06 13:37 44.33175 -5.72446 37036 ft 444 kts 206°
2026-05-06 13:37 44.27528 -5.75906 37038 ft 443 kts 206°
2026-05-06 13:38 44.21880 -5.79361 37036 ft 443 kts 206°
2026-05-06 13:38 44.16233 -5.82807 37035 ft 443 kts 205°
2026-05-06 13:39 44.10628 -5.86221 37037 ft 442 kts 205°
2026-05-06 13:39 44.04988 -5.89649 37033 ft 442 kts 205°
2026-05-06 13:40 43.99348 -5.93070 37039 ft 442 kts 205°
2026-05-06 13:40 43.93705 -5.96485 37034 ft 442 kts 205°
2026-05-06 13:41 43.88064 -5.99892 37039 ft 442 kts 205°
2026-05-06 13:41 43.82428 -6.03289 37043 ft 442 kts 205°
2026-05-06 13:42 43.76789 -6.06681 37044 ft 442 kts 205°
2026-05-06 13:42 43.71148 -6.10067 37048 ft 442 kts 205°
2026-05-06 13:43 43.65514 -6.13442 37051 ft 442 kts 205°
2026-05-06 13:43 43.59875 -6.16812 37046 ft 441 kts 205°
2026-05-06 13:44 43.54236 -6.20176 37047 ft 442 kts 206°
2026-05-06 13:44 43.48589 -6.23537 37044 ft 442 kts 206°
2026-05-06 13:45 43.42949 -6.26888 37040 ft 441 kts 206°
2026-05-06 13:45 43.34491 -6.31900 37023 ft 441 kts 206°
2026-05-06 13:46 43.28847 -6.35236 37030 ft 441 kts 206°
2026-05-06 13:46 43.23208 -6.38563 37015 ft 441 kts 206°
2026-05-06 13:47 43.17571 -6.41882 37005 ft 441 kts 206°
2026-05-06 13:47 43.11969 -6.45173 36995 ft 441 kts 206°
2026-05-06 13:48 43.06335 -6.48477 36998 ft 440 kts 205°
2026-05-06 13:48 43.00697 -6.51776 36995 ft 440 kts 206°
2026-05-06 13:49 42.95064 -6.55066 36987 ft 440 kts 205°
2026-05-06 13:49 42.89439 -6.58345 36985 ft 439 kts 205°
2026-05-06 13:50 42.83812 -6.61618 36981 ft 440 kts 205°
2026-05-06 13:50 42.78182 -6.64886 36982 ft 439 kts 205°
2026-05-06 13:51 42.72553 -6.68148 36978 ft 440 kts 205°
2026-05-06 13:51 42.66925 -6.71402 36976 ft 439 kts 205°
2026-05-06 13:52 42.61307 -6.74645 36975 ft 439 kts 205°
2026-05-06 13:52 42.55688 -6.77881 36979 ft 438 kts 205°
2026-05-06 13:53 42.50068 -6.81112 36972 ft 439 kts 205°
2026-05-06 13:53 42.44451 -6.84335 36974 ft 438 kts 205°
2026-05-06 13:54 42.38832 -6.87553 36976 ft 439 kts 205°
2026-05-06 13:54 42.33215 -6.90763 36975 ft 438 kts 205°
2026-05-06 13:55 42.27642 -6.93942 36974 ft 438 kts 205°
2026-05-06 13:55 42.22029 -6.97136 36977 ft 437 kts 205°
2026-05-06 13:56 42.16419 -7.00325 36972 ft 437 kts 205°
2026-05-06 13:56 42.10815 -7.03502 36975 ft 437 kts 205°
2026-05-06 13:57 42.05210 -7.06675 36975 ft 437 kts 205°
2026-05-06 13:57 41.99609 -7.09839 36985 ft 437 kts 205°
2026-05-06 13:58 41.94004 -7.12999 36975 ft 436 kts 205°
2026-05-06 13:58 41.88405 -7.16150 36972 ft 436 kts 205°
2026-05-06 13:59 41.82816 -7.19290 36977 ft 436 kts 205°
2026-05-06 13:59 41.77222 -7.22429 36974 ft 436 kts 205°
2026-05-06 14:00 41.71848 -7.26106 36974 ft 433 kts 213°
2026-05-06 14:00 41.66652 -7.30172 36971 ft 433 kts 212°
2026-05-06 14:01 41.61449 -7.34223 36974 ft 433 kts 212°
2026-05-06 14:01 41.56245 -7.38257 36971 ft 432 kts 212°
2026-05-06 14:02 41.51044 -7.42279 36975 ft 432 kts 212°
2026-05-06 14:02 41.45872 -7.46269 36970 ft 432 kts 212°
2026-05-06 14:03 41.40665 -7.50280 36969 ft 432 kts 212°
2026-05-06 14:03 41.35454 -7.54286 36970 ft 432 kts 212°
2026-05-06 14:04 41.31129 -7.57606 36967 ft 432 kts 212°
2026-05-06 14:04 41.25921 -7.61597 36964 ft 432 kts 212°
2026-05-06 14:05 41.20712 -7.65581 36968 ft 432 kts 212°
2026-05-06 14:05 41.15502 -7.69558 36967 ft 432 kts 212°
2026-05-06 14:06 41.10291 -7.73529 36968 ft 432 kts 212°
2026-05-06 14:06 41.05076 -7.77496 36968 ft 432 kts 212°
2026-05-06 14:07 40.99864 -7.81453 36970 ft 432 kts 212°
2026-05-06 14:07 40.94647 -7.85405 36965 ft 432 kts 212°
2026-05-06 14:08 40.89429 -7.89352 36967 ft 432 kts 212°
2026-05-06 14:08 40.84214 -7.93289 36968 ft 432 kts 212°
2026-05-06 14:09 40.78997 -7.97222 36963 ft 432 kts 212°
2026-05-06 14:09 40.73773 -8.01151 36968 ft 432 kts 212°
2026-05-06 14:10 40.68554 -8.05071 36969 ft 432 kts 212°
2026-05-06 14:10 40.63330 -8.08986 36972 ft 432 kts 212°
2026-05-06 14:11 40.58106 -8.12894 36971 ft 432 kts 212°
2026-05-06 14:11 40.52875 -8.16801 36975 ft 432 kts 212°
2026-05-06 14:12 40.47648 -8.20696 36977 ft 432 kts 212°
2026-05-06 14:12 40.42418 -8.24588 36974 ft 432 kts 212°
2026-05-06 14:13 40.39800 -8.26534 36807 ft 433 kts 212°
2026-05-06 14:13 40.37187 -8.28474 36535 ft 431 kts 212°
2026-05-06 14:13 40.34582 -8.30405 36292 ft 430 kts 212°
2026-05-06 14:13 40.31981 -8.32333 36043 ft 430 kts 212°
2026-05-06 14:14 40.29379 -8.34260 35786 ft 430 kts 212°
2026-05-06 14:14 40.26768 -8.36192 35313 ft 432 kts 212°
2026-05-06 14:14 40.24182 -8.38103 34646 ft 434 kts 212°
2026-05-06 14:14 40.21500 -8.40085 33802 ft 438 kts 212°
2026-05-06 14:15 40.18882 -8.42017 33058 ft 438 kts 212°
2026-05-06 14:15 40.16232 -8.43970 32304 ft 437 kts 212°
2026-05-06 14:15 40.13584 -8.45921 31533 ft 437 kts 211°
2026-05-06 14:15 40.10932 -8.47874 30751 ft 438 kts 211°
2026-05-06 14:16 40.08278 -8.49827 29946 ft 439 kts 211°
2026-05-06 14:16 40.05582 -8.51655 29334 ft 434 kts 204°
2026-05-06 14:16 40.02737 -8.52825 28950 ft 426 kts 194°
2026-05-06 14:16 39.99810 -8.53279 28599 ft 421 kts 183°
2026-05-06 14:17 39.96871 -8.53112 28271 ft 427 kts 179°
2026-05-06 14:17 39.93902 -8.52858 27956 ft 427 kts 179°
2026-05-06 14:17 39.90950 -8.52992 27465 ft 423 kts 191°
2026-05-06 14:17 39.88110 -8.53978 26569 ft 424 kts 204°
2026-05-06 14:18 39.85484 -8.55762 25569 ft 428 kts 213°
2026-05-06 14:18 39.82988 -8.57872 24872 ft 427 kts 215°
2026-05-06 14:18 39.80547 -8.59980 24368 ft 415 kts 215°
2026-05-06 14:18 39.78167 -8.61991 23924 ft 401 kts 214°
2026-05-06 14:19 39.75838 -8.63910 23508 ft 393 kts 214°
2026-05-06 14:19 39.73536 -8.65778 23019 ft 388 kts 213°
2026-05-06 14:19 39.71242 -8.67621 22516 ft 388 kts 213°
2026-05-06 14:19 39.68950 -8.69455 22038 ft 386 kts 213°
2026-05-06 14:20 39.66672 -8.71274 21562 ft 382 kts 213°
2026-05-06 14:20 39.64417 -8.73072 21099 ft 380 kts 213°
2026-05-06 14:20 39.62172 -8.74862 20642 ft 377 kts 213°
2026-05-06 14:20 39.59948 -8.76634 20280 ft 374 kts 213°
2026-05-06 14:21 39.57732 -8.78398 19939 ft 373 kts 213°
2026-05-06 14:21 39.55528 -8.80151 19682 ft 371 kts 213°
2026-05-06 14:21 39.53332 -8.81897 19437 ft 371 kts 213°
2026-05-06 14:21 39.51132 -8.83645 19187 ft 371 kts 213°
2026-05-06 14:22 39.48935 -8.85390 18947 ft 369 kts 213°
2026-05-06 14:22 39.46753 -8.87121 18710 ft 368 kts 213°
2026-05-06 14:22 39.44574 -8.88847 18469 ft 367 kts 213°
2026-05-06 14:22 39.42398 -8.90571 18231 ft 367 kts 213°
2026-05-06 14:23 39.40227 -8.92291 17963 ft 365 kts 213°
2026-05-06 14:23 39.38067 -8.94000 17692 ft 363 kts 213°
2026-05-06 14:23 39.35918 -8.95699 17423 ft 361 kts 213°
2026-05-06 14:23 39.33777 -8.97388 17159 ft 360 kts 213°
2026-05-06 14:24 39.31643 -8.99071 16902 ft 359 kts 213°
2026-05-06 14:24 39.29517 -9.00747 16632 ft 358 kts 213°
2026-05-06 14:24 39.27392 -9.02421 16381 ft 358 kts 213°
2026-05-06 14:24 39.25302 -9.04069 16132 ft 357 kts 213°
2026-05-06 14:25 39.23184 -9.05736 15879 ft 356 kts 213°
2026-05-06 14:25 39.21072 -9.07398 15623 ft 355 kts 213°
2026-05-06 14:25 39.18967 -9.09053 15379 ft 354 kts 213°
2026-05-06 14:25 39.16867 -9.10703 15129 ft 353 kts 213°
2026-05-06 14:26 39.14773 -9.12347 14876 ft 352 kts 213°
2026-05-06 14:26 39.12684 -9.13985 14629 ft 351 kts 213°
2026-05-06 14:26 39.10599 -9.15617 14382 ft 350 kts 213°
2026-05-06 14:26 39.08518 -9.17245 14142 ft 349 kts 213°
2026-05-06 14:27 39.06448 -9.18863 13794 ft 346 kts 213°
2026-05-06 14:27 39.04405 -9.20461 13406 ft 341 kts 213°
2026-05-06 14:27 39.02396 -9.22031 12994 ft 335 kts 213°
2026-05-06 14:27 39.00415 -9.23578 12620 ft 330 kts 213°
2026-05-06 14:28 38.98465 -9.25101 12229 ft 326 kts 213°
2026-05-06 14:28 38.96543 -9.26600 11846 ft 321 kts 213°
2026-05-06 14:28 38.94642 -9.28083 11469 ft 317 kts 213°
2026-05-06 14:28 38.92774 -9.29537 11086 ft 310 kts 213°
2026-05-06 14:29 38.90955 -9.30952 10782 ft 301 kts 213°
2026-05-06 14:29 38.89192 -9.32324 10547 ft 292 kts 213°
2026-05-06 14:29 38.87473 -9.33662 10308 ft 287 kts 213°
2026-05-06 14:29 38.85748 -9.35005 10067 ft 291 kts 213°
2026-05-06 14:30 38.84025 -9.36345 9821 ft 288 kts 213°
2026-05-06 14:30 38.82308 -9.37679 9554 ft 288 kts 213°
2026-05-06 14:30 38.80594 -9.39010 9288 ft 288 kts 212°
2026-05-06 14:30 38.78882 -9.40336 9028 ft 287 kts 212°
2026-05-06 14:31 38.77179 -9.41655 8768 ft 286 kts 212°
2026-05-06 14:31 38.75498 -9.42957 8442 ft 286 kts 212°
2026-05-06 14:31 38.73768 -9.44296 8110 ft 284 kts 212°
2026-05-06 14:31 38.72119 -9.45573 8021 ft 281 kts 212°
2026-05-06 14:32 38.70427 -9.46882 8015 ft 286 kts 212°
2026-05-06 14:32 38.68729 -9.48193 8015 ft 284 kts 212°
2026-05-06 14:32 38.67037 -9.49499 8016 ft 285 kts 212°
2026-05-06 14:32 38.65341 -9.50807 8016 ft 284 kts 212°
2026-05-06 14:33 38.63645 -9.52115 8018 ft 284 kts 212°
2026-05-06 14:33 38.61953 -9.53421 8019 ft 285 kts 212°
2026-05-06 14:33 38.60216 -9.54640 8018 ft 284 kts 201°
2026-05-06 14:33 38.58347 -9.55041 8022 ft 265 kts 176°
2026-05-06 14:34 38.56636 -9.54469 8021 ft 248 kts 151°
2026-05-06 14:34 38.55309 -9.53113 8026 ft 249 kts 127°
2026-05-06 14:34 38.54500 -9.51152 8013 ft 252 kts 103°
2026-05-06 14:34 38.54380 -9.48957 7869 ft 247 kts 79°
2026-05-06 14:35 38.54778 -9.46832 7577 ft 245 kts 73°
2026-05-06 14:35 38.55202 -9.44731 7225 ft 243 kts 73°
2026-05-06 14:35 38.55615 -9.42644 6872 ft 242 kts 74°
2026-05-06 14:35 38.56017 -9.40569 6523 ft 240 kts 74°
2026-05-06 14:36 38.56412 -9.38512 6170 ft 238 kts 74°
2026-05-06 14:36 38.56804 -9.36464 5784 ft 237 kts 74°
2026-05-06 14:36 38.57193 -9.34425 5423 ft 236 kts 74°
2026-05-06 14:36 38.57579 -9.32390 5067 ft 235 kts 73°
2026-05-06 14:37 38.57954 -9.30410 4929 ft 224 kts 73°
2026-05-06 14:37 38.58311 -9.28525 4828 ft 212 kts 73°
2026-05-06 14:37 38.58649 -9.26742 4731 ft 201 kts 73°
2026-05-06 14:37 38.58972 -9.25048 4591 ft 192 kts 72°
2026-05-06 14:38 38.59575 -9.23646 4350 ft 178 kts 37°
2026-05-06 14:38 38.60626 -9.22874 3963 ft 172 kts 20°
2026-05-06 14:38 38.61722 -9.22354 3600 ft 165 kts 18°
2026-05-06 14:38 38.62752 -9.21809 3350 ft 156 kts 19°
2026-05-06 14:39 38.63719 -9.21295 3107 ft 145 kts 19°
2026-05-06 14:39 38.64610 -9.20819 2905 ft 132 kts 18°
2026-05-06 14:39 38.65431 -9.20382 2735 ft 128 kts 17°
2026-05-06 14:39 38.66259 -9.19943 2560 ft 131 kts 17°
2026-05-06 14:40 38.67101 -9.19493 2381 ft 131 kts 18°
2026-05-06 14:40 38.67945 -9.19042 2197 ft 132 kts 17°
2026-05-06 14:40 38.68776 -9.18597 2019 ft 128 kts 17°
2026-05-06 14:40 38.69590 -9.18163 1845 ft 126 kts 17°
2026-05-06 14:41 38.70423 -9.17720 1647 ft 132 kts 17°
2026-05-06 14:41 38.71268 -9.17265 1463 ft 131 kts 17°
2026-05-06 14:41 38.72095 -9.16796 1343 ft 128 kts 16°
2026-05-06 14:41 38.72919 -9.16362 1165 ft 127 kts 17°
2026-05-06 14:42 38.73752 -9.15930 1034 ft 131 kts 18°
2026-05-06 14:42 38.74574 -9.15481 782 ft 124 kts 18°
2026-05-06 14:42 38.75366 -9.15052 665 ft 130 kts 16°
2026-05-06 14:42 38.76256 -9.14597 467 ft 137 kts 19°
2026-05-06 14:43 38.77074 -9.14144 357 ft 122 kts 15°
2026-05-06 14:43 38.77673 -9.13841 351 ft 65 kts 25°
2026-05-06 14:43 38.77957 -9.13687 351 ft 37 kts 22°
2026-05-06 14:43 38.78180 -9.13563 353 ft 32 kts 28°
2026-05-06 14:44 38.78219 -9.13495 356 ft 9 kts 98°
2026-05-06 14:44 38.78158 -9.13454 351 ft 6 kts 168°
2026-05-06 14:44 38.78118 -9.13444 347 ft 0 kts 168°
2026-05-06 14:45 38.78074 -9.13432 351 ft 11 kts 168°
2026-05-06 14:45 38.77960 -9.13399 347 ft 22 kts 167°
2026-05-06 14:45 38.77803 -9.13358 351 ft 21 kts 168°
2026-05-06 14:45 38.77650 -9.13321 347 ft 24 kts 176°
2026-05-06 14:46 38.77506 -9.13300 356 ft 0 kts 167°
2026-05-06 14:46 38.77494 -9.13297 355 ft 4 kts 167°
2026-05-06 14:46 38.77474 -9.13248 347 ft 11 kts 75°
2026-05-06 14:46 38.77489 -9.13165 347 ft 0 kts 78°
2026-05-06 14:47 38.77490 -9.13156 347 ft 3 kts 78°
2026-05-06 14:47 38.77491 -9.13156 347 ft 0 kts 78°